APRIZESAT 10 (40019 NORAD) Tracking and Keplerian Element Data

This shows tracking and keplerian element data for the satellite.

Feedback or suggestion? Click here.




ElementValue
Catalog40019
NameAPRIZESAT 10
Epoch Orbit23549
Epoch Day316.62934513
Epoch Year2018
RAAN168.739
Inclination97.7644
Eccentricity0.0085439
Argument of Perigee127.3412
Mean Anonmoly233.5616
Mean Motion14.66962508
Decay Rate2.6E-07
L11 40019U 14033K 18316.62934513 .00000026 00000-0 12625-4 0 9995
L22 40019 97.7644 168.7390 0085439 127.3412 233.5616 14.66962508235492

Live tracking and technical data element details for APRIZESAT 10 (NORAD 40019). APRIZESAT 10 can be tracked NOW for your location showing map with azimuth and elevation plus other details from your city location.

Track the satellite on the map from your city or location and see movement details for azimuth, elevation, latitude, longitude, range, height, and movement on the map or in text.







IsCatalogInMostPopularTable: catalog: 40019, numindb: 70
Update: records affected: 1



GetName: 40019 APRIZESAT 10

Hit Count: updated at: Tue, 13 Nov 2018 23:18:55 GMT